South Bend, IN

4:22 AM EDT on August 29, 2016 (GMT -0400)
South Bend Regional

Weather History for KSBN - July, 2014

Change the Weather History Date:

Thursday, July 17, 2014

  Actual Average Record
Temperature  
Mean Temperature 63 °F 73 °F  
Max Temperature 76 °F 83 °F 100 °F (1901)
Min Temperature 50 °F 63 °F 46 °F (1896)
Degree Days  
Heating Degree Days 2 0  
Month to date heating degree days 9 0  
Since 1 June heating degree days 26 44  
Since 1 July heating degree days 9 0  
Cooling Degree Days 0 8  
Month to date cooling degree days 80 136  
Year to date cooling degree days 381 357  
Since 1 June cooling degree days 296 301  
Growing Degree Days 12 (Base 50)    
Moisture  
Dew Point 48 °F    
Average Humidity 58    
Maximum Humidity 83    
Minimum Humidity 33    
Precipitation  
Precipitation 0.00 in 0.13 in 1.85 in (2015)
Month to date precipitation 1.52 2.14  
Year to date precipitation 25.74 19.65  
Snow  
Snow 0.00 in 0.00 in 0.00 in (2002)
Month to date snowfall 0.0  
Since 1 June snowfall 0.0  
Since 1 July snowfall 0.0  
Snow Depth -    
Sea Level Pressure  
Sea Level Pressure 30.12 in    
Wind  
Wind Speed 3 mph (WSW)    
Max Wind Speed 9 mph    
Max Gust Speed 12 mph    
Visibility 10 miles    
Events      
T = Trace of Precipitation, MM = Missing Value Source: NWS Daily Summary

Daily Weather History Graph

Daily Weather History Graph

Search for Another Location

Airport or City:

Trip Planner

Search our weather history database for the weather conditions in past years. The results will help you decide how hot, cold, wet, or windy it might be!

Date:

Astronomy

Jul. 17, 2014 Rise Set
Actual Time 6:25 AM EDT 9:16 PM EDT
Civil Twilight 5:52 AM EDT 9:49 PM EDT
Nautical Twilight 5:11 AM EDT 10:31 PM EDT
Astronomical Twilight 4:22 AM EDT 11:18 PM EDT
Moon No Moon Rise 12:42 PM EDT (7/17)
Length of Visible Light 15h 57m
Length of Day
14h 51m
Waning Gibbous, 66% of the Moon is Illuminated
Jul 17
Waning Gibbous
Jul 18
Last Quarter
Jul 26
New
Aug 3
First Quarter
Aug 10
Full

Hourly Weather History & Observations

Time (EDT) Temp. Dew Point Humidity Pressure Visibility Wind Dir Wind Speed Gust Speed Precip Events Conditions
12:54 AM 53.1 °F 48.0 °F 83% 30.07 in 10.0 mi West 3.5 mph - N/A   Clear
1:54 AM 54.0 °F 48.9 °F 83% 30.07 in 10.0 mi Calm Calm - N/A   Clear
2:54 AM 52.0 °F 46.9 °F 83% 30.07 in 10.0 mi Calm Calm - N/A   Clear
3:54 AM 51.1 °F 46.9 °F 86% 30.07 in 10.0 mi Calm Calm - N/A   Clear
4:54 AM 51.1 °F 46.9 °F 86% 30.07 in 10.0 mi SW 4.6 mph - N/A   Clear
5:54 AM 51.1 °F 46.0 °F 83% 30.09 in 10.0 mi Calm Calm - N/A   Clear
6:54 AM 51.1 °F 46.9 °F 86% 30.11 in 10.0 mi South 3.5 mph - N/A   Clear
7:54 AM 55.0 °F 50.0 °F 83% 30.13 in 10.0 mi SW 3.5 mph - N/A   Clear
8:54 AM 59.0 °F 51.1 °F 75% 30.14 in 10.0 mi WSW 4.6 mph - N/A   Clear
9:54 AM 64.0 °F 51.1 °F 63% 30.14 in 10.0 mi SSW 3.5 mph - N/A   Clear
10:54 AM 69.1 °F 50.0 °F 51% 30.14 in 10.0 mi West 3.5 mph - N/A   Clear
11:54 AM 71.1 °F 46.9 °F 42% 30.14 in 10.0 mi West 5.8 mph - N/A   Clear
12:54 PM 73.0 °F 43.0 °F 34% 30.13 in 10.0 mi Variable 3.5 mph - N/A   Clear
1:54 PM 73.0 °F 44.1 °F 35% 30.12 in 10.0 mi South 5.8 mph - N/A   Clear
2:54 PM 73.9 °F 46.0 °F 37% 30.12 in 10.0 mi WSW 9.2 mph - N/A   Partly Cloudy
3:54 PM 75.0 °F 46.9 °F 37% 30.12 in 10.0 mi Variable 5.8 mph - N/A   Clear
4:54 PM 73.9 °F 46.9 °F 38% 30.12 in 10.0 mi West 8.1 mph - N/A   Clear
5:54 PM 75.0 °F 48.0 °F 38% 30.12 in 10.0 mi WNW 4.6 mph - N/A   Clear
6:54 PM 75.0 °F 48.0 °F 38% 30.12 in 10.0 mi Calm Calm - N/A   Partly Cloudy
7:54 PM 73.0 °F 48.9 °F 42% 30.12 in 10.0 mi North 4.6 mph - N/A   Clear
8:54 PM 68.0 °F 51.1 °F 55% 30.12 in 10.0 mi North 4.6 mph - N/A   Clear
9:54 PM 64.9 °F 52.0 °F 63% 30.14 in 10.0 mi Calm Calm - N/A   Clear
10:54 PM 62.1 °F 52.0 °F 70% 30.15 in 10.0 mi Calm Calm - N/A   Clear
11:54 PM 60.1 °F 52.0 °F 75% 30.16 in 10.0 mi Calm Calm - N/A   Clear